Weather History for Pensacola NAS, FL

Change the Weather History Date:

Wednesday, October 24, 2012

  Actual Average Record
Temperature  
Mean Temperature 68 °F -  
Max Temperature 81 °F 76 °F 84 °F (2000)
Min Temperature 57 °F 56 °F 39 °F (2006)
Cooling Degree Days 4    
Growing Degree Days 18 (Base 50)    
Moisture  
Dew Point 62 °F    
Average Humidity 83    
Maximum Humidity 100    
Minimum Humidity 54    
Precipitation  
Precipitation 0.00 in - - ()
Sea Level Pressure  
Sea Level Pressure 30.05 in    
Wind  
Wind Speed 4 mph (ENE)    
Max Wind Speed 12 mph    
Max Gust Speed -    
Visibility 10 miles    
Events      
Averages and records for this station are not official NWS values.
T = Trace of Precipitation, MM = Missing Value Source: NWS Daily Summary

Daily Weather History Graph

Daily Weather History Graph

Search for Another Location

Airport:

Trip Planner

Search our weather history database for the weather conditions in past years. The results will help you decide how hot, cold, wet, or windy it might be!

Date:

Astronomy

Oct. 24, 2012 Rise Set
Actual Time 6:58 AM CDT 6:08 PM CDT
Civil Twilight 6:33 AM CDT 6:32 PM CDT
Nautical Twilight 6:05 AM CDT 7:00 PM CDT
Astronomical Twilight 5:37 AM CDT 7:28 PM CDT
Moon 3:06 PM CDT 2:12 AM CDT
Length of Visible Light 11h 59m
Length of Day
11h 10m
Waxing Gibbous, 76% of the Moon is Illuminated
Oct 24
Waxing Gibbous
Oct 29
Full
Nov 6
Last Quarter
Nov 13
New
Nov 20
First Quarter

Hourly Weather History & Observations

Time (CDT) Temp. Heat Index Dew Point Humidity Pressure Visibility Wind Dir Wind Speed Gust Speed Precip Events Conditions
12:56 AM 57.9 °F - 57.9 °F 100% 30.06 in 10.0 mi Calm Calm - 0.00 in   Clear
1:56 AM 57.9 °F - 57.0 °F 97% 30.05 in 9.0 mi Calm Calm - N/A   Clear
2:56 AM 57.9 °F - 57.9 °F 100% 30.04 in 10.0 mi Calm Calm - 0.00 in   Clear
3:56 AM 59.0 °F - 59.0 °F 100% 30.04 in 10.0 mi North 3.5 mph - N/A   Clear
4:56 AM 60.1 °F - 57.9 °F 93% 30.06 in 10.0 mi North 3.5 mph - N/A   Partly Cloudy
5:56 AM 61.0 °F - 59.0 °F 93% 30.08 in 10.0 mi NNE 4.6 mph - N/A   Scattered Clouds
6:56 AM 62.1 °F - 60.1 °F 93% 30.09 in 10.0 mi NNE 4.6 mph - N/A   Scattered Clouds
7:56 AM 64.9 °F - 63.0 °F 93% 30.09 in 10.0 mi NNE 6.9 mph - N/A   Partly Cloudy
8:56 AM 72.0 °F - 66.0 °F 81% 30.10 in 10.0 mi ENE 6.9 mph - N/A   Partly Cloudy
9:56 AM 73.9 °F - 66.9 °F 79% 30.10 in 10.0 mi ENE 9.2 mph - N/A   Partly Cloudy
10:56 AM 77.0 °F - 68.0 °F 74% 30.10 in 10.0 mi East 11.5 mph - N/A   Partly Cloudy
11:56 AM 79.0 °F - 66.9 °F 66% 30.09 in 10.0 mi East 6.9 mph - N/A   Partly Cloudy
12:56 PM 80.1 °F 81.9 °F 64.9 °F 60% 30.06 in 10.0 mi East 9.2 mph - N/A   Scattered Clouds
1:56 PM 79.0 °F - 66.9 °F 66% 30.04 in 10.0 mi SE 11.5 mph - N/A   Scattered Clouds
2:56 PM 80.1 °F 81.2 °F 62.1 °F 54% 30.02 in 10.0 mi ESE 11.5 mph - N/A   Partly Cloudy
3:56 PM 79.0 °F - 63.0 °F 58% 30.01 in 10.0 mi ESE 8.1 mph - N/A   Partly Cloudy
4:56 PM 77.0 °F - 63.0 °F 62% 30.01 in 10.0 mi SE 8.1 mph - N/A   Partly Cloudy
5:56 PM 73.9 °F - 63.0 °F 68% 30.01 in 10.0 mi SE 5.8 mph - N/A   Scattered Clouds
6:56 PM 68.0 °F - 63.0 °F 84% 30.02 in 10.0 mi Calm Calm - N/A   Scattered Clouds
7:56 PM 64.9 °F - 63.0 °F 93% 30.03 in 10.0 mi Calm Calm - N/A   Partly Cloudy
8:56 PM 64.0 °F - 62.1 °F 93% 30.03 in 10.0 mi Calm Calm - N/A   Clear
9:56 PM 63.0 °F - 62.1 °F 97% 30.04 in 10.0 mi NW 3.5 mph - N/A   Clear
10:56 PM 59.0 °F - 59.0 °F 100% 30.02 in 9.0 mi Calm Calm - N/A   Clear
11:56 PM 60.1 °F - 59.0 °F 96% 30.01 in 10.0 mi Calm Calm - 0.00 in   Clear